Find Starlink 36798

NORAD ID: 67798 Int'l Des: 2026-032 Owner: SPXS Country: US Constellation: starlink operational
LEOCIRCULARRETROGRADE

Live Position

Loading 3D Globe...

About Starlink 36798

Description loading...

Upcoming Passes

Passes for default location (London). Set your location on the main map for personalized predictions.

Altitude History

Loading altitude history...

Two-Line Element Set

1 67798U 26032B 26111.41773242 .00049463 00000-0 90400-3 0 9993
2 67798 97.2840 299.7616 0003032 68.5838 291.5737 15.49230344 11499
Epoch: Apr 21, 2026 • Age: 32 hours

Current Status

Altitude 422.8 km
Velocity 7.66 km/s
Sub-Earth Point 33.39°N, 10.25°E
Launch Date Feb 15, 2026
Age 0.1 years
Type internet

Technical Details

Classification Payload
Mass 575.00 kg
Dry Mass 530.00 kg
Total Mass 575.00 kg
Length 0.30 m
Diameter 4.10 m
Span 29.00 m
Shape Box + pan
Manufacturer SPXS
Bus Type Starlink V2MO
Phase Status In Orbit
Owner/State SPXS/US

Most Searched